CAPE
112 216 126 65 73 130 264 361 642 1116 1804 1833 1448 1726 2031 2203 1772 1264 671 37 0 0 0 0 0 0 0 0 0 0 0 0 0 0 0 0 0 0 0 0 0 0 0
57 102 269 230 267 312 305 325 413 730 1160 1707 1737 1831 2068 2172 1766 1295 1034 24 0 0 0 0 0 0 0 0 0 0 0 0 0 0 0 0 0 0 0 0 0 0 0
121 24 67 552 558 628 743 838 968 1173 1244 1495 1680 1920 2031 2110 1669 1502 608 22 0 0 0 0 0 0 0 0 0 0 0 0 0 0 0 0 0 0 0 0 0 0 0
292 315 120 341 810 886 1088 1353 1549 1816 1940 1887 1841 1930 2193 2116 1590 997 97 0 0 0 0 0 0 0 0 0 0 0 0 0 0 0 0 0 0 0 0 0 0 0 0
618 777 709 680 1015 1200 1463 1638 1850 2044 2101 2054 2144 2046 2061 1987 1255 224 0 0 0 0 0 0 0 0 0 0 0 0 0 0 0 0 0 0 0 0 0 0 0 0 0
1016 1038 1093 1193 1353 1564 1632 1790 2000 2115 2092 2102 2283 2275 2119 2279 1068 9 0 0 0 0 0 0 0 0 0 0 0 0 0 0 0 0 0 0 0 0 0 0 0 0 0
1146 1191 1176 1332 1481 1668 1745 1875 2083 2208 2134 2113 2261 2268 2223 1900 175 0 0 0 0 0 0 0 0 0 0 0 0 0 0 0 0 0 0 0 0 0 1 0 0 0 0
1140 1287 1310 1466 1587 1693 1847 2045 2230 2294 2263 2042 2293 2177 1679 462 0 0 0 0 0 0 0 0 0 0 0 0 0 0 0 0 0 0 0 0 0 0 0 0 0 0 0
1166 1322 1420 1580 1669 1721 1929 2030 2202 2298 2142 2085 2354 1976 1001 1 0 0 0 0 0 0 0 0 0 0 0 0 0 0 0 0 0 0 0 0 0 1 0 0 0 0 0
1095 1316 1456 1513 1765 1874 1948 2061 2187 2211 2233 1948 2147 1652 607 1 0 0 0 0 0 0 0 0 0 0 0 0 0 0 0 0 0 0 0 0 0 0 0 0 0 0 2
807 1031 1434 1492 1647 1962 1997 2080 2159 2139 2025 2220 2092 1180 375 0 0 0 0 0 0 0 0 0 0 0 0 0 0 0 0 0 0 0 0 0 0 0 0 0 0 2 1
991 994 1444 1559 1587 1838 2094 2182 2173 2116 2050 2197 1927 1038 385 0 0 0 0 0 0 0 0 0 0 0 0 0 0 0 0 0 0 0 0 0 0 0 0 0 0 0 0
1212 1097 1502 1740 1782 1932 2051 2207 2253 2268 2115 2258 1977 1414 671 71 0 0 0 0 0 0 0 0 0 0 0 0 0 0 0 0 0 0 0 0 0 0 0 0 0 0 0
375 1849 1945 1946 2005 2304 2261 2253 2453 2493 2456 2413 2232 1760 698 21 0 0 0 0 0 0 0 0 0 0 0 0 0 0 0 0 0 0 0 0 0 0 0 0 0 0 0
282 1220 2344 2566 2232 2547 1586 1947 2710 2619 2685 2696 2563 1942 859 147 14 0 0 0 0 0 0 0 0 0 0 0 0 0 0 0 0 0 0 0 0 0 0 0 0 0 0
270 528 948 2632 2352 2856 765 170 1 71 310 2459 2638 2054 1198 737 27 0 0 0 0 0 0 0 0 0 0 0 0 0 0 0 0 0 0 0 0 0 0 0 0 0 0
2 120 410 1773 2786 2711 1808 1632 1310 1 2 2 38 1622 1213 357 0 0 0 0 0 0 0 0 0 0 0 0 0 0 0 0 0 0 0 0 0 0 0 0 0 0 0
2 23 595 1006 1409 1918 1523 1220 1017 912 764 267 1 2 2 3 0 0 0 0 0 0 0 0 0 0 0 0 0 0 0 0 0 0 0 0 0 0 0 0 0 0 0
3 2 34 515 547 539 871 418 249 16 1 4 0 1 9 4 1 0 0 0 0 0 0 0 0 0 0 0 0 0 0 0 0 0 0 0 0 0 0 0 0 0 0
2 1 1 11 226 67 41 76 50 4 3 0 0 0 4 4 2 1 0 0 0 0 0 0 0 0 0 0 0 0 0 0 0 0 0 0 0 0 0 0 0 0 0
2 1 1 1 1 14 0 0 1 1 0 0 0 0 0 1 0 4 0 0 0 0 0 0 0 0 0 0 0 0 0 0 0 0 0 0 0 0 0 0 0 0 0
2 2 3 3 2 3 2 0 1 2 1 0 1 1 0 2 2 9 3 1 0 0 0 0 0 0 0 0 0 0 0 0 0 0 0 0 0 0 0 0 0 0 0
2 1 4 3 3 1 2 1 2 4 1 2 1 0 1 4 6 14 15 9 0 0 0 0 0 0 0 0 0 0 0 0 0 0 0 0 0 0 0 0 0 0 0
0 1 1 0 1 1 2 2 2 0 1 3 0 0 1 6 12 9 7 4 0 0 0 0 0 0 0 0 0 0 0 0 0 0 0 0 0 0 0 0 0 0 0
0 2 1 1 1 0 1 2 3 2 2 2 1 2 3 1 2 9 17 11 6 3 1 1 0 0 0 0 0 0 0 0 0 0 0 0 0 0 0 0 0 0 0
0 0 6 4 2 1 1 0 1 1 1 1 2 2 2 3 3 3 3 11 7 3 4 4 8 1 1 3 0 2 0 0 0 0 0 0 0 0 0 0 0 0 0
CIN
-427 -463 -495 -554 -569 -487 -412 -384 -346 -276 -173 -168 -211 -147 -82 -69 -98 -147 -247 -471 -0 -0 -0 -0 -0 -0 -0 -0 -0 -0 -0 -0 -0 -0 -0 -0 -0 -0 -0 -0 -6 -0 -0
-512 -489 -438 -462 -455 -423 -408 -400 -400 -355 -288 -187 -189 -149 -89 -72 -112 -160 -177 -517 -0 -0 -0 -0 -0 -0 -0 -0 -0 -0 -0 -0 -0 -0 -0 -0 -0 -0 -0 -0 -0 -0 -0
-459 -542 -533 -369 -351 -343 -321 -306 -290 -284 -283 -238 -208 -154 -108 -88 -145 -135 -346 -606 -0 -0 -0 -0 -0 -0 -0 -0 -0 -0 -0 -0 -0 -0 -0 -0 -0 -0 -0 -0 -0 -0 -0
-428 -419 -471 -427 -315 -306 -284 -222 -193 -184 -170 -184 -191 -168 -112 -114 -177 -290 -656 -0 -0 -0 -0 -0 -0 -0 -0 -0 -0 -0 -0 -0 -0 -0 -0 -0 -0 -0 -0 -0 -0 -0 -0
-346 -321 -304 -342 -296 -265 -241 -207 -167 -153 -160 -164 -151 -164 -155 -149 -254 -608 -0 -0 -0 -0 -0 -0 -0 -0 -0 -0 -0 -0 -0 -0 -0 -0 -0 -0 -0 -0 -0 -0 -0 -0 -0
-319 -288 -263 -275 -252 -239 -230 -202 -158 -148 -162 -162 -139 -126 -144 -101 -319 -345 -0 -0 -0 -0 -0 -0 -0 -0 -0 -0 -0 -0 -0 -0 -0 -0 -0 -0 -0 -0 -0 -0 -0 -0 -0
-329 -290 -283 -275 -238 -213 -211 -184 -150 -150 -164 -177 -146 -139 -131 -176 -715 -0 -0 -0 -0 -0 -0 -0 -0 -0 -0 -0 -0 -0 -0 -0 -0 -0 -0 -0 -0 -0 -0 -0 -0 -0 -0
-352 -324 -334 -281 -250 -215 -195 -163 -146 -153 -155 -195 -145 -161 -251 -599 -0 -0 -0 -0 -0 -0 -0 -0 -0 -0 -0 -0 -0 -0 -0 -0 -0 -0 -0 -0 -0 -0 -0 -0 -0 -0 -0
-376 -343 -350 -323 -274 -222 -192 -190 -176 -154 -171 -188 -138 -193 -419 -0 -0 -0 -0 -0 -0 -0 -0 -0 -0 -0 -0 -0 -0 -0 -0 -0 -0 -0 -0 -0 -0 -0 -0 -0 -0 -0 -0
-401 -392 -375 -359 -298 -260 -242 -209 -189 -175 -162 -200 -160 -259 -561 -0 -0 -0 -0 -0 -0 -0 -0 -0 -0 -0 -0 -0 -0 -0 -0 -0 -0 -0 -0 -0 -0 -0 -0 -0 -0 -0 -0
-506 -396 -368 -350 -338 -308 -280 -235 -205 -174 -169 -137 -161 -364 -658 -0 -0 -0 -0 -0 -0 -0 -0 -0 -0 -0 -0 -0 -0 -0 -0 -0 -0 -0 -0 -0 -0 -0 -0 -0 -0 -0 -0
-451 -424 -348 -302 -292 -300 -275 -232 -208 -184 -153 -112 -156 -372 -631 -0 -0 -0 -0 -0 -0 -0 -0 -0 -0 -0 -0 -0 -0 -0 -0 -0 -0 -0 -0 -0 -0 -0 -0 -0 -0 -0 -0
-347 -355 -303 -268 -235 -238 -221 -193 -159 -140 -132 -110 -142 -260 -479 -887 -0 -0 -0 -0 -0 -0 -0 -0 -0 -0 -0 -0 -0 -0 -0 -0 -0 -0 -0 -0 -0 -0 -0 -0 -0 -0 -0
-558 -204 -215 -207 -199 -167 -156 -147 -118 -102 -96 -90 -90 -191 -483 -1006 -0 -0 -0 -0 -0 -0 -0 -0 -0 -0 -0 -0 -0 -0 -0 -0 -0 -0 -0 -0 -0 -0 -0 -0 -0 -0 -0
-552 -292 -168 -140 -148 -106 -336 -212 -85 -118 -104 -72 -80 -163 -418 -740 -814 -0 -0 -0 -0 -0 -0 -0 -0 -0 -0 -0 -0 -0 -0 -0 -0 -0 -0 -0 -0 -0 -0 -0 -0 -0 -0
-526 -474 -367 -114 -120 -63 -498 -512 -0 -235 -543 -88 -52 -131 -273 -435 -947 -0 -0 -0 -0 -0 -0 -0 -0 -0 -0 -0 -0 -0 -0 -0 -0 -0 -0 -0 -0 -0 -0 -0 -0 -0 -0
-73 -660 -497 -147 -86 -54 -176 -219 -245 -0 -0 -0 -11 -148 -236 -585 -24 -0 -0 -0 -0 -0 -0 -0 -0 -0 -0 -0 -0 -0 -0 -0 -0 -0 -0 -0 -0 -0 -0 -0 -0 -0 -0
-0 -687 -346 -272 -230 -74 -120 -195 -241 -223 -243 -456 -0 -0 -0 -0 -0 -0 -0 -0 -0 -0 -0 -0 -0 -0 -0 -0 -0 -0 -0 -0 -0 -0 -0 -0 -0 -0 -0 -0 -0 -0 -0
-0 -0 -637 -315 -388 -383 -198 -449 -501 -619 -0 -341 -0 -0 -0 -0 -0 -0 -0 -0 -0 -0 -0 -0 -0 -0 -0 -0 -0 -0 -0 -0 -0 -0 -0 -0 -0 -0 -0 -0 -0 -0 -0
-0 -0 -0 -102 -510 -262 -450 -506 -496 -114 -0 -139 -0 -0 -0 -0 -0 -0 -0 -0 -0 -0 -0 -0 -0 -0 -0 -0 -0 -0 -0 -0 -0 -0 -0 -0 -0 -0 -0 -0 -0 -0 -0
-0 -0 -0 -0 -0 -335 -0 -0 -0 -0 -0 -0 -0 -0 -0 -0 -0 -0 -0 -0 -0 -0 -0 -0 -0 -0 -0 -0 -0 -0 -0 -0 -0 -0 -0 -0 -0 -0 -0 -0 -0 -0 -0
-0 -0 -0 -0 -0 -0 -0 -0 -0 -0 -0 -0 -0 -0 -0 -0 -0 -0 -0 -0 -0 -0 -0 -0 -0 -0 -0 -0 -0 -0 -0 -0 -0 -0 -0 -0 -0 -0 -0 -0 -0 -0 -0
-0 -0 -0 -0 -0 -0 -0 -0 -0 -0 -0 -0 -0 -0 -0 -0 -0 -0 -0 -0 -0 -0 -0 -0 -0 -0 -0 -0 -0 -0 -0 -0 -0 -0 -0 -0 -0 -0 -0 -0 -0 -0 -0
-1 -0 -0 -0 -0 -0 -0 -0 -0 -0 -0 -0 -0 -0 -0 -0 -0 -0 -0 -0 -0 -0 -0 -0 -0 -0 -0 -0 -0 -0 -0 -0 -0 -0 -0 -0 -0 -0 -0 -0 -0 -0 -0
-0 -0 -0 -0 -0 -0 -0 -0 -0 -0 -0 -0 -0 -0 -0 -0 -0 -0 -0 -0 -0 -0 -0 -0 -0 -0 -0 -0 -0 -0 -0 -0 -0 -0 -0 -0 -0 -0 -0 -0 -0 -0 -0
-0 -0 -0 -0 -0 -0 -0 -0 -0 -0 -0 -0 -0 -0 -0 -0 -0 -0 -0 -0 -0 -0 -0 -0 -0 -0 -0 -0 -0 -0 -0 -0 -0 -0 -0 -0 -0 -0 -0 -0 -0 -0 -0
Wind_Speed
10 10 9 8 7 6 6 6 6 4 3 3 2 2 1 3 4 5 5 6 7 6 5 6 6 4 4 4 4 4 3 3 3 2 1 2 2 2 2 2 2 2 2
12 10 11 8 7 7 7 7 6 7 4 4 2 3 2 2 5 6 6 6 7 6 6 7 5 3 7 6 5 6 5 5 3 1 2 3 4 1 2 2 3 2 1
11 10 7 8 8 8 7 7 7 6 6 5 4 4 3 2 5 5 7 7 6 6 6 7 5 6 6 4 5 5 5 4 4 3 2 2 2 2 2 2 3 3 2
12 11 10 10 11 10 7 7 7 6 6 5 4 4 3 4 5 6 8 8 7 6 6 6 6 7 7 6 6 6 4 5 4 4 3 2 1 3 2 2 3 1 2
13 12 13 11 10 8 7 7 7 6 6 5 4 4 3 5 5 8 8 9 8 7 6 6 6 9 11 9 5 4 5 5 4 4 3 3 3 3 3 2 2 1 2
12 14 10 8 8 9 7 8 7 7 6 4 5 4 4 4 12 13 11 9 8 8 7 6 6 11 10 12 12 11 8 5 4 2 2 3 4 2 3 3 2 1 2
11 10 9 9 10 10 8 7 8 8 5 6 5 4 4 5 14 15 14 9 8 7 7 7 6 4 8 6 9 10 10 12 8 2 4 4 5 4 4 4 4 3 1
12 10 9 9 10 8 8 9 8 5 7 5 5 5 4 4 15 14 15 10 8 6 7 7 8 7 5 6 5 5 4 4 3 3 5 4 4 5 2 2 2 1 2
11 11 11 12 9 9 10 10 8 6 5 5 4 5 6 7 15 17 12 9 8 7 6 7 7 7 8 9 6 4 2 1 1 7 11 11 12 14 12 4 5 3 2
11 13 11 11 12 12 10 9 5 4 5 5 5 6 9 10 13 14 13 8 8 6 4 5 10 8 10 9 6 5 3 4 2 3 4 6 7 9 15 8 4 5 2
3 7 9 11 13 12 10 7 6 5 5 5 6 5 8 11 12 15 15 10 8 7 5 4 4 8 9 10 8 6 5 4 4 4 3 4 4 6 7 7 7 6 5
5 6 7 8 7 7 10 7 6 6 6 6 7 5 5 8 11 12 15 10 12 9 8 4 5 7 8 11 7 6 5 6 4 3 1 1 2 4 4 6 7 7 7
5 7 7 7 6 6 7 7 5 6 5 6 7 6 5 6 7 8 9 11 11 6 6 7 8 8 8 6 7 7 6 4 3 2 2 2 2 2 2 2 5 8 11
6 4 5 7 6 6 5 5 6 6 6 6 7 7 7 6 7 7 6 6 7 6 8 6 5 4 3 4 3 1 2 3 3 2 2 2 1 1 2 2 3 3 6
7 6 5 5 6 6 3 5 7 8 10 9 9 9 9 9 10 15 14 10 8 8 8 4 3 2 2 1 0 1 2 3 2 1 2 2 1 1 3 2 3 3 5
7 6 5 3 4 5 7 4 6 4 3 11 12 11 7 10 14 18 16 15 18 18 5 3 4 4 4 4 3 2 1 3 3 2 3 3 3 3 4 4 4 4 4
9 8 6 4 4 4 5 5 5 3 11 12 2 12 15 13 19 16 17 19 19 12 4 4 4 5 5 5 4 3 3 3 3 4 3 4 5 4 4 4 4 3 5
8 10 6 4 2 5 3 5 5 4 1 2 12 12 8 9 17 17 18 15 6 4 5 6 6 5 5 5 5 4 3 3 3 4 3 4 5 4 3 4 4 4 4
7 6 5 4 6 7 6 9 9 7 6 5 8 8 11 13 11 12 21 9 10 9 7 7 6 6 5 5 5 4 4 5 4 5 4 4 5 5 4 4 4 6 4
7 10 6 6 11 4 1 5 9 7 7 5 4 11 3 4 2 7 7 4 5 5 3 5 6 5 6 6 5 5 5 4 4 5 5 5 5 5 6 5 5 5 4
6 7 9 5 7 4 5 4 4 9 5 2 8 14 20 4 1 7 7 5 5 4 5 5 5 5 6 5 5 5 5 5 5 5 5 5 5 5 5 5 6 5 6
7 7 7 7 7 6 4 3 2 4 5 7 5 5 12 9 7 6 4 3 4 4 4 4 4 6 7 7 8 7 7 7 5 5 5 7 7 5 6 7 6 6 6
8 8 7 7 10 7 7 7 7 5 7 8 8 9 6 5 8 6 5 4 3 2 2 2 3 3 4 5 6 8 9 9 9 7 7 7 7 8 7 9 8 6 6
9 10 10 8 8 8 8 8 8 10 12 12 8 5 12 7 6 5 5 1 1 3 2 1 2 3 2 3 4 7 7 6 7 9 11 10 9 9 8 8 10 9 7
10 10 11 10 9 9 9 9 9 10 11 10 9 8 8 9 8 7 7 6 6 6 7 6 4 3 5 5 3 6 5 10 10 10 8 10 11 14 11 9 9 9 8
9 10 10 9 10 10 10 10 11 10 10 9 9 9 10 9 8 8 8 8 7 8 9 8 9 15 14 9 11 14 5 7 7 9 8 8 9 9 9 10 13 9 10
Wind_Direction
198 194 191 201 208 191 196 226 235 254 250 247 240 266 313 85 105 121 122 111 104 101 80 90 69 52 46 39 39 37 43 67 104 315 316 320 44 74 40 349 97 84 37
190 191 194 190 193 198 205 218 231 239 246 251 249 269 279 106 146 147 129 121 120 111 106 90 80 63 48 38 49 50 56 39 101 143 333 335 21 346 230 221 220 156 160
176 183 194 183 195 206 201 206 229 231 236 238 235 242 253 167 145 135 124 113 114 113 115 105 106 85 64 47 51 58 44 43 49 75 336 333 298 327 329 269 225 181 176
175 179 191 189 198 208 196 193 219 222 238 226 236 239 234 178 139 125 118 111 102 94 101 101 101 97 108 90 71 63 48 47 31 49 22 332 333 320 324 333 320 207 160
181 180 196 196 196 192 184 193 213 226 233 221 233 237 171 157 145 133 125 119 114 99 92 91 99 107 113 112 109 78 58 49 31 33 32 347 357 345 333 309 278 268 88
183 198 192 179 183 189 187 189 201 228 228 204 222 227 171 170 140 134 132 125 121 116 112 90 90 96 96 104 101 94 78 65 40 42 10 8 332 289 303 315 294 27 51
185 186 186 176 183 191 186 180 202 220 210 205 213 209 196 154 148 139 131 124 126 127 129 127 111 92 99 92 75 71 65 63 68 132 63 24 347 313 319 332 17 65 70
185 185 171 182 190 186 176 188 201 201 207 182 203 204 146 139 139 132 122 125 126 136 142 142 133 138 135 116 100 80 69 82 71 68 56 27 11 333 328 260 260 223 272
183 187 187 180 179 180 190 196 200 188 185 169 171 164 136 134 139 136 128 132 137 147 159 155 150 153 164 141 123 116 94 278 287 28 53 44 42 32 33 354 15 27 3
189 190 186 180 179 186 191 194 189 175 186 150 161 163 144 145 160 145 138 142 143 154 166 176 181 177 167 158 151 161 174 232 156 24 15 11 31 27 32 36 3 30 358
254 172 179 187 190 186 178 183 174 169 144 156 149 146 144 156 168 161 155 153 160 160 167 188 213 214 189 169 163 178 192 148 150 133 74 18 25 41 35 29 23 29 20
269 177 176 186 191 180 177 178 162 152 154 150 143 135 144 158 162 180 169 156 156 159 172 183 198 198 178 161 161 211 157 112 118 133 124 26 41 66 28 45 34 42 48
273 182 179 164 176 167 168 160 145 152 160 169 170 163 152 155 161 172 164 153 150 138 153 173 162 159 146 156 167 162 143 133 133 122 189 213 218 151 63 49 46 39 53
312 177 169 155 161 162 163 167 168 167 179 180 181 173 161 154 161 161 164 163 129 97 126 124 124 125 122 122 116 128 167 158 159 148 159 100 86 25 28 29 44 42 58
325 323 144 145 172 174 116 166 182 195 186 185 192 176 166 176 189 175 170 170 155 140 116 97 100 88 125 146 61 119 133 146 128 164 115 110 76 10 52 68 69 49 68
332 0 338 150 177 178 168 158 41 47 241 202 181 173 184 166 163 172 157 136 135 139 114 144 159 161 181 192 184 181 152 181 150 169 110 109 96 74 85 59 67 80 77
341 345 318 315 142 182 177 181 184 40 52 45 329 172 166 172 166 166 150 140 148 137 143 158 177 164 185 190 195 187 193 190 140 147 142 127 114 100 94 99 90 83 83
341 324 323 324 57 68 82 84 64 50 357 27 32 20 12 157 161 141 125 106 140 235 162 165 185 178 182 177 191 193 196 156 144 141 155 142 126 124 126 118 109 105 102
341 344 337 336 79 86 114 96 85 74 86 110 93 42 19 51 88 143 156 158 178 192 187 177 155 174 190 177 188 191 191 186 169 147 166 163 150 130 127 127 115 110 111
331 351 12 14 58 353 339 102 97 103 191 185 78 78 92 296 169 181 200 129 171 199 148 142 158 163 185 188 179 184 194 195 184 165 164 164 163 144 137 144 131 128 113
341 355 355 29 58 46 339 20 127 199 145 176 150 149 159 186 199 213 195 160 171 177 150 174 172 167 182 189 172 175 191 196 200 183 156 160 162 149 140 132 129 120 130
359 3 7 28 53 55 25 47 329 305 108 123 124 127 148 129 141 213 201 171 126 172 182 181 170 179 188 187 187 180 193 193 194 186 163 165 163 154 149 141 139 143 142
24 32 31 20 45 27 49 41 10 1 40 60 64 73 57 77 122 177 150 187 194 204 205 168 200 180 182 193 198 189 189 197 195 173 164 163 163 161 165 155 155 153 162
33 34 33 40 45 48 47 49 46 41 50 42 28 58 80 46 51 55 70 33 143 100 80 352 325 292 313 216 201 207 209 180 167 183 165 167 174 170 168 168 165 169 167
43 43 35 36 41 46 47 52 53 47 52 52 51 38 40 66 57 30 26 30 25 49 51 33 2 326 298 348 270 244 238 174 172 174 175 171 176 179 177 178 176 168 164
38 46 51 44 45 47 47 47 50 49 52 52 51 45 49 37 45 38 33 25 36 44 40 40 19 41 22 15 1 339 224 181 190 191 190 184 176 180 182 180 180 180 176